Data supplied by UK-AIR on 2/5/2024
All Data GMT hour ending 
Status: R =Ratified P=Provisional,P*=As supplied
,,Birkenhead Borough Road,,,,,,,,,,,,,,,,,,,,,,,
Date,time,"Nitric oxide",status,unit,"Nitrogen dioxide",status,unit,"Nitrogen oxides as nitrogen dioxide",status,unit
 
01-01-2024,01:00,1.35015,P,ugm-3,4.33365,P,ugm-3,6.40384,P,ugm-3
01-01-2024,02:00,1.01261,P,ugm-3,3.37905,P,ugm-3,4.93169,P,ugm-3
01-01-2024,03:00,0.72329,P,ugm-3,2.09289,P,ugm-3,3.20192,P,ugm-3
01-01-2024,04:00,0.86795,P,ugm-3,1.81588,P,ugm-3,3.14672,P,ugm-3
01-01-2024,05:00,0.90412,P,ugm-3,2.25727,P,ugm-3,3.64357,P,ugm-3
01-01-2024,06:00,0.50631,P,ugm-3,1.70793,P,ugm-3,2.48425,P,ugm-3
01-01-2024,07:00,0.54247,P,ugm-3,2.14932,P,ugm-3,2.98110,P,ugm-3
01-01-2024,08:00,1.01261,P,ugm-3,4.07832,P,ugm-3,5.63096,P,ugm-3
01-01-2024,09:00,0.86795,P,ugm-3,4.02410,P,ugm-3,5.35494,P,ugm-3
01-01-2024,10:00,0.94028,P,ugm-3,4.68607,P,ugm-3,6.12781,P,ugm-3
01-01-2024,11:00,1.88056,P,ugm-3,6.28063,P,ugm-3,9.16412,P,ugm-3
01-01-2024,12:00,1.66357,P,ugm-3,6.61334,P,ugm-3,9.16412,P,ugm-3
01-01-2024,13:00,4.52058,P,ugm-3,14.32267,P,ugm-3,21.25413,P,ugm-3
01-01-2024,14:00,7.44992,P,ugm-3,28.98740,P,ugm-3,40.41044,P,ugm-3
01-01-2024,15:00,4.88223,P,ugm-3,23.48432,P,ugm-3,30.97030,P,ugm-3
01-01-2024,16:00,3.21865,P,ugm-3,17.86468,P,ugm-3,22.79988,P,ugm-3
01-01-2024,17:00,2.31454,P,ugm-3,14.28248,P,ugm-3,17.83139,P,ugm-3
01-01-2024,18:00,2.78468,P,ugm-3,11.24297,P,ugm-3,15.51275,P,ugm-3
01-01-2024,19:00,2.67618,P,ugm-3,13.34152,P,ugm-3,17.44495,P,ugm-3
01-01-2024,20:00,1.41042,P,ugm-3,11.14192,P,ugm-3,13.30453,P,ugm-3
01-01-2024,21:00,1.84440,P,ugm-3,9.86923,P,ugm-3,12.69727,P,ugm-3
01-01-2024,22:00,1.69974,P,ugm-3,10.80871,P,ugm-3,13.41494,P,ugm-3
01-01-2024,23:00,1.04878,P,ugm-3,8.71534,P,ugm-3,10.32343,P,ugm-3
01-01-2024,24:00,1.15727,P,ugm-3,9.48747,P,ugm-3,11.26193,P,ugm-3
02-01-2024,01:00,0.43477,P,ugm-3,2.87376,P,ugm-3,3.54039,P,ugm-3
02-01-2024,02:00,0.09662,P,ugm-3,1.25327,P,ugm-3,1.40140,P,ugm-3
02-01-2024,03:00,0.14492,P,ugm-3,1.21607,P,ugm-3,1.43828,P,ugm-3
02-01-2024,04:00,0.10869,P,ugm-3,1.16099,P,ugm-3,1.32765,P,ugm-3
02-01-2024,05:00,0.32607,P,ugm-3,1.65745,P,ugm-3,2.15742,P,ugm-3
02-01-2024,06:00,0.61592,P,ugm-3,4.91938,P,ugm-3,5.86377,P,ugm-3
02-01-2024,07:00,1.66660,P,ugm-3,9.55936,P,ugm-3,12.11477,P,ugm-3
02-01-2024,08:00,9.13006,P,ugm-3,33.79603,P,ugm-3,47.79526,P,ugm-3
02-01-2024,09:00,15.21677,P,ugm-3,44.37790,P,ugm-3,67.70995,P,ugm-3
02-01-2024,10:00,12.75310,P,ugm-3,41.51724,P,ugm-3,61.07172,P,ugm-3
02-01-2024,11:00,3.98534,P,ugm-3,15.07625,P,ugm-3,21.18702,P,ugm-3
02-01-2024,12:00,6.37655,P,ugm-3,23.08200,P,ugm-3,32.85924,P,ugm-3
02-01-2024,13:00,37.20862,P,ugm-3,61.27404,P,ugm-3,118.32646,P,ugm-3
02-01-2024,14:00,39.20129,P,ugm-3,73.87381,P,ugm-3,133.98162,P,ugm-3
02-01-2024,15:00,8.84022,P,ugm-3,65.71673,P,ugm-3,79.27154,P,ugm-3
02-01-2024,16:00,10.47059,P,ugm-3,61.55731,P,ugm-3,77.61198,P,ugm-3
02-01-2024,17:00,7.64461,P,ugm-3,46.86081,P,ugm-3,58.58239,P,ugm-3
02-01-2024,18:00,5.94179,P,ugm-3,35.03362,P,ugm-3,44.14424,P,ugm-3
02-01-2024,19:00,4.42011,P,ugm-3,27.02225,P,ugm-3,33.79966,P,ugm-3
02-01-2024,20:00,2.97089,P,ugm-3,17.07426,P,ugm-3,21.62957,P,ugm-3
02-01-2024,21:00,2.28252,P,ugm-3,19.78932,P,ugm-3,23.28913,P,ugm-3
02-01-2024,22:00,1.15937,P,ugm-3,6.90734,P,ugm-3,8.68502,P,ugm-3
02-01-2024,23:00,1.08691,P,ugm-3,5.85675,P,ugm-3,7.52333,P,ugm-3
02-01-2024,24:00,0.94199,P,ugm-3,5.91301,P,ugm-3,7.35737,P,ugm-3
03-01-2024,01:00,0.58074,P,ugm-3,7.60907,P,ugm-3,8.49952,P,ugm-3
03-01-2024,02:00,1.06469,P,ugm-3,6.34966,P,ugm-3,7.98216,P,ugm-3
03-01-2024,03:00,0.90741,P,ugm-3,6.47996,P,ugm-3,7.87130,P,ugm-3
03-01-2024,04:00,0.10889,P,ugm-3,7.59347,P,ugm-3,7.76043,P,ugm-3
03-01-2024,05:00,1.05259,P,ugm-3,13.46346,P,ugm-3,15.07741,P,ugm-3
03-01-2024,06:00,1.45185,P,ugm-3,19.89110,P,ugm-3,22.11723,P,ugm-3
03-01-2024,07:00,5.33554,P,ugm-3,25.57684,P,ugm-3,33.75788,P,ugm-3
03-01-2024,08:00,22.17695,P,ugm-3,50.63995,P,ugm-3,84.64414,P,ugm-3
03-01-2024,09:00,36.07838,P,ugm-3,62.58371,P,ugm-3,117.90313,P,ugm-3
03-01-2024,10:00,50.74203,P,ugm-3,64.32340,P,ugm-3,142.12676,P,ugm-3
03-01-2024,11:00,55.46053,P,ugm-3,64.46088,P,ugm-3,149.49917,P,ugm-3
03-01-2024,12:00,13.64736,P,ugm-3,36.72327,P,ugm-3,57.64892,P,ugm-3
03-01-2024,13:00,11.39699,P,ugm-3,30.02978,P,ugm-3,47.50493,P,ugm-3
03-01-2024,14:00,10.16293,P,ugm-3,32.86433,P,ugm-3,48.44727,P,ugm-3
03-01-2024,15:00,6.85997,P,ugm-3,30.72267,P,ugm-3,41.24115,P,ugm-3
03-01-2024,16:00,8.16664,P,ugm-3,33.26455,P,ugm-3,45.78655,P,ugm-3
03-01-2024,17:00,10.56218,P,ugm-3,34.02596,P,ugm-3,50.22108,P,ugm-3
03-01-2024,18:00,9.90885,P,ugm-3,30.14973,P,ugm-3,45.34309,P,ugm-3
03-01-2024,19:00,6.75109,P,ugm-3,21.29995,P,ugm-3,31.65148,P,ugm-3
03-01-2024,20:00,4.35554,P,ugm-3,18.82016,P,ugm-3,25.49856,P,ugm-3
03-01-2024,21:00,4.24665,P,ugm-3,17.71219,P,ugm-3,24.22363,P,ugm-3
03-01-2024,22:00,2.83110,P,ugm-3,23.15314,P,ugm-3,27.49410,P,ugm-3
03-01-2024,23:00,0.87111,P,ugm-3,13.90803,P,ugm-3,15.24371,P,ugm-3
03-01-2024,24:00,1.12518,P,ugm-3,10.19255,P,ugm-3,11.91781,P,ugm-3
04-01-2024,01:00,0.43634,P,ugm-3,10.58801,P,ugm-3,11.25706,P,ugm-3
04-01-2024,02:00,0.24241,P,ugm-3,2.07227,P,ugm-3,2.44397,P,ugm-3
04-01-2024,03:00,0.10909,P,ugm-3,1.49908,P,ugm-3,1.66634,P,ugm-3
04-01-2024,04:00,0.10909,P,ugm-3,2.49888,P,ugm-3,2.66615,P,ugm-3
04-01-2024,05:00,0.36362,P,ugm-3,3.05286,P,ugm-3,3.61041,P,ugm-3
04-01-2024,06:00,1.01813,P,ugm-3,5.27088,P,ugm-3,6.83200,P,ugm-3
04-01-2024,07:00,1.45448,P,ugm-3,7.37907,P,ugm-3,9.60924,P,ugm-3
04-01-2024,08:00,3.63619,P,ugm-3,15.80930,P,ugm-3,21.38472,P,ugm-3
04-01-2024,09:00,7.09058,P,ugm-3,23.28794,P,ugm-3,34.16000,P,ugm-3
04-01-2024,10:00,7.16330,P,ugm-3,26.34248,P,ugm-3,37.32605,P,ugm-3
04-01-2024,11:00,7.63600,P,ugm-3,24.95114,P,ugm-3,36.65952,P,ugm-3
04-01-2024,12:00,7.05421,P,ugm-3,19.06675,P,ugm-3,29.88306,P,ugm-3
04-01-2024,13:00,7.99962,P,ugm-3,17.95041,P,ugm-3,30.21633,P,ugm-3
04-01-2024,14:00,6.07244,P,ugm-3,18.68359,P,ugm-3,27.99454,P,ugm-3
04-01-2024,15:00,8.21779,P,ugm-3,23.33699,P,ugm-3,35.93743,P,ugm-3
04-01-2024,16:00,34.54382,P,ugm-3,57.95635,P,ugm-3,110.92281,P,ugm-3
04-01-2024,17:00,45.45240,P,ugm-3,62.55927,P,ugm-3,132.25198,P,ugm-3
04-01-2024,18:00,93.01379,P,ugm-3,69.72831,P,ugm-3,212.34747,P,ugm-3
04-01-2024,19:00,85.66868,P,ugm-3,66.82675,P,ugm-3,198.18356,P,ugm-3
04-01-2024,20:00,102.03155,P,ugm-3,68.34329,P,ugm-3,224.78948,P,ugm-3
04-01-2024,21:00,67.52409,P,ugm-3,61.09906,P,ugm-3,164.63455,P,ugm-3
04-01-2024,22:00,47.01596,P,ugm-3,53.32984,P,ugm-3,125.41998,P,ugm-3
04-01-2024,23:00,48.07046,P,ugm-3,51.21307,P,ugm-3,124.92008,P,ugm-3
04-01-2024,24:00,6.50878,P,ugm-3,30.51211,P,ugm-3,40.49210,P,ugm-3
05-01-2024,01:00,1.01998,P,ugm-3,16.98866,P,ugm-3,18.55259,P,ugm-3
05-01-2024,02:00,0.53427,P,ugm-3,9.71867,P,ugm-3,10.53788,P,ugm-3
05-01-2024,03:00,0.32785,P,ugm-3,8.06860,P,ugm-3,8.57130,P,ugm-3
05-01-2024,04:00,0.10928,P,ugm-3,4.67466,P,ugm-3,4.84223,P,ugm-3
05-01-2024,05:00,0.47356,P,ugm-3,9.84886,P,ugm-3,10.57498,P,ugm-3
05-01-2024,06:00,2.14923,P,ugm-3,18.07715,P,ugm-3,21.37259,P,ugm-3
05-01-2024,07:00,13.84252,P,ugm-3,36.21394,P,ugm-3,57.43884,P,ugm-3
05-01-2024,08:00,56.71790,P,ugm-3,50.28587,P,ugm-3,137.25210,P,ugm-3
05-01-2024,09:00,107.27952,P,ugm-3,66.09724,P,ugm-3,230.59021,P,ugm-3
05-01-2024,10:00,96.67906,P,ugm-3,67.43476,P,ugm-3,215.67392,P,ugm-3
05-01-2024,11:00,92.38060,P,ugm-3,70.63052,P,ugm-3,212.27879,P,ugm-3
05-01-2024,12:00,51.18089,P,ugm-3,62.22661,P,ugm-3,140.70288,P,ugm-3
05-01-2024,13:00,27.75789,P,ugm-3,48.71726,P,ugm-3,91.27877,P,ugm-3
05-01-2024,14:00,6.22913,P,ugm-3,28.74135,P,ugm-3,38.29256,P,ugm-3
05-01-2024,15:00,12.85897,P,ugm-3,47.85174,P,ugm-3,67.56855,P,ugm-3
05-01-2024,16:00,9.21620,P,ugm-3,39.68976,P,ugm-3,53.82108,P,ugm-3
05-01-2024,17:00,8.70622,P,ugm-3,40.80568,P,ugm-3,54.15503,P,ugm-3
05-01-2024,18:00,4.91774,P,ugm-3,26.02122,P,ugm-3,33.56164,P,ugm-3
05-01-2024,19:00,2.07638,P,ugm-3,17.18701,P,ugm-3,20.37075,P,ugm-3
05-01-2024,20:00,2.03995,P,ugm-3,12.40064,P,ugm-3,15.52852,P,ugm-3
05-01-2024,21:00,1.34782,P,ugm-3,10.90163,P,ugm-3,12.96827,P,ugm-3
05-01-2024,22:00,0.61927,P,ugm-3,10.34900,P,ugm-3,11.29853,P,ugm-3
05-01-2024,23:00,0.50999,P,ugm-3,6.23091,P,ugm-3,7.01288,P,ugm-3
05-01-2024,24:00,1.01998,P,ugm-3,11.18169,P,ugm-3,12.74563,P,ugm-3
06-01-2024,01:00,0.58390,P,ugm-3,10.63068,P,ugm-3,11.52598,P,ugm-3
06-01-2024,02:00,2.33558,P,ugm-3,22.37086,P,ugm-3,25.95204,P,ugm-3
06-01-2024,03:00,3.61285,P,ugm-3,21.06307,P,ugm-3,26.60270,P,ugm-3
06-01-2024,04:00,0.40143,P,ugm-3,9.20016,P,ugm-3,9.81567,P,ugm-3
06-01-2024,05:00,3.57636,P,ugm-3,23.12678,P,ugm-3,28.61045,P,ugm-3
06-01-2024,06:00,10.47362,P,ugm-3,34.85947,P,ugm-3,50.91879,P,ugm-3
06-01-2024,07:00,26.78618,P,ugm-3,45.76364,P,ugm-3,86.83522,P,ugm-3
06-01-2024,08:00,59.04638,P,ugm-3,58.20434,P,ugm-3,148.74086,P,ugm-3
06-01-2024,09:00,64.88533,P,ugm-3,61.13059,P,ugm-3,160.62005,P,ugm-3
06-01-2024,10:00,68.49818,P,ugm-3,60.77766,P,ugm-3,165.80674,P,ugm-3
06-01-2024,11:00,24.59658,P,ugm-3,51.96530,P,ugm-3,89.67953,P,ugm-3
06-01-2024,12:00,8.39349,P,ugm-3,29.23715,P,ugm-3,42.10699,P,ugm-3
06-01-2024,13:00,6.24038,P,ugm-3,22.49979,P,ugm-3,32.06824,P,ugm-3
06-01-2024,14:00,5.29155,P,ugm-3,20.27377,P,ugm-3,28.38736,P,ugm-3
06-01-2024,15:00,4.48869,P,ugm-3,18.88357,P,ugm-3,25.76613,P,ugm-3
06-01-2024,16:00,7.15271,P,ugm-3,30.52617,P,ugm-3,41.49351,P,ugm-3
06-01-2024,17:00,12.26180,P,ugm-3,50.52201,P,ugm-3,69.32317,P,ugm-3
06-01-2024,18:00,26.74969,P,ugm-3,56.41606,P,ugm-3,97.43168,P,ugm-3
06-01-2024,19:00,50.14198,P,ugm-3,54.62436,P,ugm-3,131.50767,P,ugm-3
06-01-2024,20:00,102.10864,P,ugm-3,62.33619,P,ugm-3,218.90059,P,ugm-3
06-01-2024,21:00,127.83652,P,ugm-3,65.32895,P,ugm-3,261.34221,P,ugm-3
06-01-2024,22:00,87.43828,P,ugm-3,60.84897,P,ugm-3,194.91912,P,ugm-3
06-01-2024,23:00,89.55490,P,ugm-3,58.88626,P,ugm-3,196.20185,P,ugm-3
06-01-2024,24:00,95.10190,P,ugm-3,57.79850,P,ugm-3,203.61938,P,ugm-3
07-01-2024,01:00,92.66538,P,ugm-3,51.57146,P,ugm-3,193.65640,P,ugm-3
07-01-2024,02:00,55.86246,P,ugm-3,44.14514,P,ugm-3,129.79971,P,ugm-3
07-01-2024,03:00,29.86887,P,ugm-3,39.87176,P,ugm-3,85.67004,P,ugm-3
07-01-2024,04:00,18.57207,P,ugm-3,37.41036,P,ugm-3,65.88714,P,ugm-3
07-01-2024,05:00,14.62368,P,ugm-3,37.93197,P,ugm-3,60.35463,P,ugm-3
07-01-2024,06:00,15.31830,P,ugm-3,37.70515,P,ugm-3,61.19289,P,ugm-3
07-01-2024,07:00,22.73982,P,ugm-3,38.56423,P,ugm-3,73.43147,P,ugm-3
07-01-2024,08:00,57.21514,P,ugm-3,44.93975,P,ugm-3,132.66842,P,ugm-3
07-01-2024,09:00,76.55496,P,ugm-3,51.44268,P,ugm-3,168.82531,P,ugm-3
07-01-2024,10:00,76.22593,P,ugm-3,55.52376,P,ugm-3,172.40188,P,ugm-3
07-01-2024,11:00,103.97436,P,ugm-3,61.70753,P,ugm-3,221.13266,P,ugm-3
07-01-2024,12:00,46.32050,P,ugm-3,57.17392,P,ugm-3,128.19770,P,ugm-3
07-01-2024,13:00,37.69253,P,ugm-3,55.64994,P,ugm-3,113.44435,P,ugm-3
07-01-2024,14:00,15.17207,P,ugm-3,35.41460,P,ugm-3,58.67811,P,ugm-3
07-01-2024,15:00,7.20216,P,ugm-3,28.01970,P,ugm-3,39.06286,P,ugm-3
07-01-2024,16:00,3.58280,P,ugm-3,30.49569,P,ugm-3,35.98924,P,ugm-3
07-01-2024,17:00,8.07958,P,ugm-3,53.72215,P,ugm-3,66.11067,P,ugm-3
07-01-2024,18:00,9.61507,P,ugm-3,54.49727,P,ugm-3,69.24017,P,ugm-3
07-01-2024,19:00,12.68604,P,ugm-3,56.71812,P,ugm-3,76.16978,P,ugm-3
07-01-2024,20:00,2.81506,P,ugm-3,49.33220,P,ugm-3,53.64856,P,ugm-3
07-01-2024,21:00,3.07097,P,ugm-3,43.07199,P,ugm-3,47.78075,P,ugm-3
07-01-2024,22:00,2.15699,P,ugm-3,36.42612,P,ugm-3,39.73347,P,ugm-3
07-01-2024,23:00,3.91184,P,ugm-3,41.16796,P,ugm-3,47.16603,P,ugm-3
07-01-2024,24:00,4.02151,P,ugm-3,43.34692,P,ugm-3,49.51315,P,ugm-3
08-01-2024,01:00,4.00433,P,ugm-3,43.66010,P,ugm-3,49.79998,P,ugm-3
08-01-2024,02:00,2.24633,P,ugm-3,31.12448,P,ugm-3,34.56880,P,ugm-3
08-01-2024,03:00,1.75800,P,ugm-3,28.15878,P,ugm-3,30.85434,P,ugm-3
08-01-2024,04:00,1.02550,P,ugm-3,20.88238,P,ugm-3,22.45479,P,ugm-3
08-01-2024,05:00,2.93000,P,ugm-3,27.03370,P,ugm-3,31.52630,P,ugm-3
08-01-2024,06:00,0.84237,P,ugm-3,25.47493,P,ugm-3,26.76656,P,ugm-3
08-01-2024,07:00,4.13862,P,ugm-3,36.21191,P,ugm-3,42.55771,P,ugm-3
08-01-2024,08:00,26.33334,P,ugm-3,64.11314,P,ugm-3,104.49037,P,ugm-3
08-01-2024,09:00,23.03710,P,ugm-3,59.14385,P,ugm-3,94.46691,P,ugm-3
08-01-2024,10:00,24.50210,P,ugm-3,62.83323,P,ugm-3,100.40259,P,ugm-3
08-01-2024,11:00,19.59435,P,ugm-3,56.52708,P,ugm-3,86.57133,P,ugm-3
08-01-2024,12:00,17.79973,P,ugm-3,50.87925,P,ugm-3,78.17179,P,ugm-3
08-01-2024,13:00,13.14836,P,ugm-3,40.65218,P,ugm-3,60.81272,P,ugm-3
08-01-2024,14:00,12.81874,P,ugm-3,34.60596,P,ugm-3,54.26108,P,ugm-3
08-01-2024,15:00,15.38248,P,ugm-3,38.12253,P,ugm-3,61.70867,P,ugm-3
08-01-2024,16:00,11.61011,P,ugm-3,38.53104,P,ugm-3,56.33296,P,ugm-3
08-01-2024,17:00,15.23598,P,ugm-3,45.96275,P,ugm-3,69.32426,P,ugm-3
08-01-2024,18:00,14.02736,P,ugm-3,38.68844,P,ugm-3,60.19675,P,ugm-3
08-01-2024,19:00,7.28837,P,ugm-3,30.31843,P,ugm-3,41.49376,P,ugm-3
08-01-2024,20:00,4.21187,P,ugm-3,23.16429,P,ugm-3,29.62240,P,ugm-3
08-01-2024,21:00,2.56375,P,ugm-3,24.51544,P,ugm-3,28.44647,P,ugm-3
08-01-2024,22:00,1.97775,P,ugm-3,20.82221,P,ugm-3,23.85471,P,ugm-3
08-01-2024,23:00,0.87900,P,ugm-3,17.24322,P,ugm-3,18.59100,P,ugm-3
08-01-2024,24:00,0.80575,P,ugm-3,16.34759,P,ugm-3,17.58305,P,ugm-3
09-01-2024,01:00,0.97842,P,ugm-3,14.80910,P,ugm-3,16.30932,P,ugm-3
09-01-2024,02:00,1.32087,P,ugm-3,13.38626,P,ugm-3,15.41156,P,ugm-3
09-01-2024,03:00,0.91727,P,ugm-3,13.91158,P,ugm-3,15.31804,P,ugm-3
09-01-2024,04:00,0.73381,P,ugm-3,11.10683,P,ugm-3,12.23199,P,ugm-3
09-01-2024,05:00,0.77051,P,ugm-3,10.04059,P,ugm-3,11.22201,P,ugm-3
09-01-2024,06:00,2.09137,P,ugm-3,19.01286,P,ugm-3,22.21958,P,ugm-3
09-01-2024,07:00,5.13670,P,ugm-3,33.70138,P,ugm-3,41.57755,P,ugm-3
09-01-2024,08:00,18.12521,P,ugm-3,43.29982,P,ugm-3,71.09143,P,ugm-3
09-01-2024,09:00,29.20581,P,ugm-3,63.67910,P,ugm-3,108.46072,P,ugm-3
09-01-2024,10:00,23.70220,P,ugm-3,54.44319,P,ugm-3,90.78606,P,ugm-3
09-01-2024,11:00,23.04177,P,ugm-3,46.92711,P,ugm-3,82.25733,P,ugm-3
09-01-2024,12:00,15.63025,P,ugm-3,37.47446,P,ugm-3,61.44050,P,ugm-3
09-01-2024,13:00,14.19931,P,ugm-3,30.69093,P,ugm-3,52.46289,P,ugm-3
09-01-2024,14:00,13.20866,P,ugm-3,36.53037,P,ugm-3,56.78337,P,ugm-3
09-01-2024,15:00,13.79571,P,ugm-3,33.16140,P,ugm-3,54.31453,P,ugm-3
09-01-2024,16:00,15.07988,P,ugm-3,42.58270,P,ugm-3,65.70487,P,ugm-3
09-01-2024,17:00,26.49070,P,ugm-3,58.35962,P,ugm-3,98.97812,P,ugm-3
09-01-2024,18:00,16.69428,P,ugm-3,57.10868,P,ugm-3,82.70621,P,ugm-3
09-01-2024,19:00,11.63096,P,ugm-3,40.57667,P,ugm-3,58.41056,P,ugm-3
09-01-2024,20:00,8.91584,P,ugm-3,35.59385,P,ugm-3,49.26462,P,ugm-3
09-01-2024,21:00,3.70576,P,ugm-3,39.93538,P,ugm-3,45.61747,P,ugm-3
09-01-2024,22:00,3.26547,P,ugm-3,36.45833,P,ugm-3,41.46532,P,ugm-3
09-01-2024,23:00,0.95396,P,ugm-3,23.28182,P,ugm-3,24.74453,P,ugm-3
09-01-2024,24:00,1.43094,P,ugm-3,22.15769,P,ugm-3,24.35176,P,ugm-3
10-01-2024,01:00,,,,,,,,,
10-01-2024,02:00,0.24504,P,ugm-3,9.14472,P,ugm-3,9.52045,P,ugm-3
10-01-2024,03:00,0.33081,P,ugm-3,12.81765,P,ugm-3,13.32488,P,ugm-3
10-01-2024,04:00,0.36756,P,ugm-3,22.20677,P,ugm-3,22.77036,P,ugm-3
10-01-2024,05:00,0.84540,P,ugm-3,14.83977,P,ugm-3,16.13603,P,ugm-3
10-01-2024,06:00,0.88216,P,ugm-3,21.81130,P,ugm-3,23.16392,P,ugm-3
10-01-2024,07:00,2.79349,P,ugm-3,34.06087,P,ugm-3,38.34416,P,ugm-3
10-01-2024,08:00,9.04209,P,ugm-3,46.85661,P,ugm-3,60.72096,P,ugm-3
10-01-2024,09:00,,,,,,,,,
10-01-2024,10:00,,,,,,,,,
10-01-2024,11:00,,,,,,,,,
10-01-2024,12:00,13.15882,P,ugm-3,41.50018,P,ugm-3,61.67675,P,ugm-3
10-01-2024,13:00,11.32100,P,ugm-3,43.24990,P,ugm-3,60.60852,P,ugm-3
10-01-2024,14:00,7.64535,P,ugm-3,37.69741,P,ugm-3,49.42012,P,ugm-3
10-01-2024,15:00,6.83671,P,ugm-3,37.53174,P,ugm-3,48.01454,P,ugm-3
10-01-2024,16:00,9.77722,P,ugm-3,50.17105,P,ugm-3,65.16259,P,ugm-3
10-01-2024,17:00,12.16639,P,ugm-3,55.16607,P,ugm-3,73.82095,P,ugm-3
10-01-2024,18:00,10.99019,P,ugm-3,59.61205,P,ugm-3,76.46343,P,ugm-3
10-01-2024,19:00,6.76319,P,ugm-3,52.76847,P,ugm-3,63.13855,P,ugm-3
10-01-2024,20:00,6.06482,P,ugm-3,52.93973,P,ugm-3,62.23899,P,ugm-3
10-01-2024,21:00,2.64647,P,ugm-3,22.70434,P,ugm-3,26.76220,P,ugm-3
10-01-2024,22:00,1.02918,P,ugm-3,14.50176,P,ugm-3,16.07981,P,ugm-3
10-01-2024,23:00,0.88216,P,ugm-3,12.81561,P,ugm-3,14.16823,P,ugm-3
10-01-2024,24:00,1.21296,P,ugm-3,12.81438,P,ugm-3,14.67423,P,ugm-3
11-01-2024,01:00,0.43986,P,ugm-3,8.15140,P,ugm-3,8.82585,P,ugm-3
11-01-2024,02:00,0.29324,P,ugm-3,6.65593,P,ugm-3,7.10556,P,ugm-3
11-01-2024,03:00,0.10997,P,ugm-3,4.82398,P,ugm-3,4.99259,P,ugm-3
11-01-2024,04:00,0.10997,P,ugm-3,6.33859,P,ugm-3,6.50720,P,ugm-3
11-01-2024,05:00,0.54983,P,ugm-3,13.29326,P,ugm-3,14.13632,P,ugm-3
11-01-2024,06:00,0.91638,P,ugm-3,15.36776,P,ugm-3,16.77286,P,ugm-3
11-01-2024,07:00,25.87865,P,ugm-3,53.21580,P,ugm-3,92.89584,P,ugm-3
11-01-2024,08:00,57.21893,P,ugm-3,66.13829,P,ugm-3,153.87276,P,ugm-3
11-01-2024,09:00,78.40570,P,ugm-3,74.04186,P,ugm-3,194.26225,P,ugm-3
11-01-2024,10:00,84.45382,P,ugm-3,79.46549,P,ugm-3,208.95954,P,ugm-3
11-01-2024,11:00,34.01612,P,ugm-3,68.56239,P,ugm-3,120.71971,P,ugm-3
11-01-2024,12:00,10.33680,P,ugm-3,38.28361,P,ugm-3,54.13314,P,ugm-3
11-01-2024,13:00,10.11686,P,ugm-3,42.26711,P,ugm-3,57.77942,P,ugm-3
11-01-2024,14:00,7.03782,P,ugm-3,36.49820,P,ugm-3,47.28937,P,ugm-3
11-01-2024,15:00,6.48799,P,ugm-3,32.29257,P,ugm-3,42.24068,P,ugm-3
11-01-2024,16:00,16.93475,P,ugm-3,51.50304,P,ugm-3,77.46930,P,ugm-3
11-01-2024,17:00,5.24171,P,ugm-3,43.34724,P,ugm-3,51.38441,P,ugm-3
11-01-2024,18:00,5.79154,P,ugm-3,42.50418,P,ugm-3,51.38441,P,ugm-3
11-01-2024,19:00,6.08478,P,ugm-3,39.69849,P,ugm-3,49.02836,P,ugm-3
11-01-2024,20:00,7.00116,P,ugm-3,32.73984,P,ugm-3,43.47481,P,ugm-3
11-01-2024,21:00,4.94847,P,ugm-3,34.76533,P,ugm-3,42.35288,P,ugm-3
11-01-2024,22:00,1.75946,P,ugm-3,29.05284,P,ugm-3,31.75063,P,ugm-3
11-01-2024,23:00,1.06300,P,ugm-3,33.93528,P,ugm-3,35.56519,P,ugm-3
11-01-2024,24:00,1.72280,P,ugm-3,35.05527,P,ugm-3,37.69686,P,ugm-3
12-01-2024,01:00,2.43694,P,ugm-3,40.06921,P,ugm-3,43.80580,P,ugm-3
12-01-2024,02:00,0.24369,P,ugm-3,19.17850,P,ugm-3,19.55216,P,ugm-3
12-01-2024,03:00,0.29243,P,ugm-3,14.15976,P,ugm-3,14.60815,P,ugm-3
12-01-2024,04:00,0.65797,P,ugm-3,5.25975,P,ugm-3,6.26863,P,ugm-3
12-01-2024,05:00,0.29243,P,ugm-3,4.58890,P,ugm-3,5.03729,P,ugm-3
12-01-2024,06:00,0.32899,P,ugm-3,5.42837,P,ugm-3,5.93281,P,ugm-3
12-01-2024,07:00,0.91385,P,ugm-3,14.04648,P,ugm-3,15.44770,P,ugm-3
12-01-2024,08:00,4.42305,P,ugm-3,24.84110,P,ugm-3,31.62301,P,ugm-3
12-01-2024,09:00,19.48335,P,ugm-3,44.73386,P,ugm-3,74.60792,P,ugm-3
12-01-2024,10:00,12.53807,P,ugm-3,39.82351,P,ugm-3,59.04828,P,ugm-3
12-01-2024,11:00,6.98184,P,ugm-3,36.08552,P,ugm-3,46.79086,P,ugm-3
12-01-2024,12:00,13.70780,P,ugm-3,42.67545,P,ugm-3,63.69378,P,ugm-3
12-01-2024,13:00,12.94016,P,ugm-3,45.58754,P,ugm-3,65.42885,P,ugm-3
12-01-2024,14:00,9.86962,P,ugm-3,44.75463,P,ugm-3,59.88783,P,ugm-3
12-01-2024,15:00,9.65029,P,ugm-3,40.61333,P,ugm-3,55.41023,P,ugm-3
12-01-2024,16:00,8.55367,P,ugm-3,32.44408,P,ugm-3,45.55952,P,ugm-3
12-01-2024,17:00,5.15413,P,ugm-3,30.38054,P,ugm-3,38.28343,P,ugm-3
12-01-2024,18:00,4.49616,P,ugm-3,32.34091,P,ugm-3,39.23492,P,ugm-3
12-01-2024,19:00,2.33947,P,ugm-3,20.36800,P,ugm-3,23.95513,P,ugm-3
12-01-2024,20:00,1.20629,P,ugm-3,17.57195,P,ugm-3,19.42157,P,ugm-3
12-01-2024,21:00,3.10710,P,ugm-3,25.62752,P,ugm-3,30.39167,P,ugm-3
12-01-2024,22:00,1.75460,P,ugm-3,22.21627,P,ugm-3,24.90662,P,ugm-3
12-01-2024,23:00,0.47520,P,ugm-3,5.70791,P,ugm-3,6.43654,P,ugm-3
12-01-2024,24:00,0.84075,P,ugm-3,7.10637,P,ugm-3,8.39549,P,ugm-3
13-01-2024,01:00,0.38883,P,ugm-3,6.17946,P,ugm-3,6.77566,P,ugm-3
13-01-2024,02:00,0.29162,P,ugm-3,4.69044,P,ugm-3,5.13759,P,ugm-3
13-01-2024,03:00,0.25517,P,ugm-3,3.51778,P,ugm-3,3.90903,P,ugm-3
13-01-2024,04:00,0.10936,P,ugm-3,1.95437,P,ugm-3,2.12205,P,ugm-3
13-01-2024,05:00,0.18227,P,ugm-3,2.40101,P,ugm-3,2.68048,P,ugm-3
13-01-2024,06:00,0.10936,P,ugm-3,3.74135,P,ugm-3,3.90903,P,ugm-3
13-01-2024,07:00,0.61970,P,ugm-3,10.16263,P,ugm-3,11.11282,P,ugm-3
13-01-2024,08:00,1.67684,P,ugm-3,15.96888,P,ugm-3,18.53999,P,ugm-3
13-01-2024,09:00,4.37436,P,ugm-3,19.70665,P,ugm-3,26.41390,P,ugm-3
13-01-2024,10:00,4.77534,P,ugm-3,25.12290,P,ugm-3,32.44498,P,ugm-3
13-01-2024,11:00,6.59799,P,ugm-3,24.89700,P,ugm-3,35.01378,P,ugm-3
13-01-2024,12:00,8.60290,P,ugm-3,30.36688,P,ugm-3,43.55781,P,ugm-3
13-01-2024,13:00,9.11324,P,ugm-3,28.80256,P,ugm-3,42.77600,P,ugm-3
13-01-2024,14:00,9.11324,P,ugm-3,27.96491,P,ugm-3,41.93835,P,ugm-3
13-01-2024,15:00,7.87384,P,ugm-3,28.13415,P,ugm-3,40.20721,P,ugm-3
13-01-2024,16:00,6.78025,P,ugm-3,27.24217,P,ugm-3,37.63841,P,ugm-3
13-01-2024,17:00,7.25414,P,ugm-3,38.41019,P,ugm-3,49.53304,P,ugm-3
13-01-2024,18:00,3.46303,P,ugm-3,23.44941,P,ugm-3,28.75932,P,ugm-3
13-01-2024,19:00,1.13004,P,ugm-3,21.66565,P,ugm-3,23.39836,P,ugm-3
13-01-2024,20:00,0.94778,P,ugm-3,14.46212,P,ugm-3,15.91535,P,ugm-3
13-01-2024,21:00,0.72906,P,ugm-3,10.27417,P,ugm-3,11.39204,P,ugm-3
13-01-2024,22:00,0.36453,P,ugm-3,6.36564,P,ugm-3,6.92457,P,ugm-3
13-01-2024,23:00,0.32808,P,ugm-3,3.79689,P,ugm-3,4.29994,P,ugm-3
13-01-2024,24:00,0.32808,P,ugm-3,3.46183,P,ugm-3,3.96488,P,ugm-3
14-01-2024,01:00,0.19388,P,ugm-3,3.49147,P,ugm-3,3.78874,P,ugm-3
14-01-2024,02:00,0.04847,P,ugm-3,1.93149,P,ugm-3,2.00580,P,ugm-3
14-01-2024,03:00,0.10906,P,ugm-3,1.89430,P,ugm-3,2.06152,P,ugm-3
14-01-2024,04:00,0.21811,P,ugm-3,5.12581,P,ugm-3,5.46024,P,ugm-3
14-01-2024,05:00,0.54528,P,ugm-3,10.58585,P,ugm-3,11.42193,P,ugm-3
14-01-2024,06:00,0.36352,P,ugm-3,6.01719,P,ugm-3,6.57458,P,ugm-3
14-01-2024,07:00,0.25446,P,ugm-3,11.36606,P,ugm-3,11.75624,P,ugm-3
14-01-2024,08:00,0.79974,P,ugm-3,24.96062,P,ugm-3,26.18687,P,ugm-3
14-01-2024,09:00,6.79779,P,ugm-3,40.78057,P,ugm-3,51.20369,P,ugm-3
14-01-2024,10:00,10.57837,P,ugm-3,41.16831,P,ugm-3,57.38825,P,ugm-3
14-01-2024,11:00,3.70788,P,ugm-3,25.46032,P,ugm-3,31.14566,P,ugm-3
14-01-2024,12:00,3.85329,P,ugm-3,20.16714,P,ugm-3,26.07544,P,ugm-3
14-01-2024,13:00,3.27166,P,ugm-3,13.98294,P,ugm-3,18.99941,P,ugm-3
14-01-2024,14:00,3.05355,P,ugm-3,14.26165,P,ugm-3,18.94370,P,ugm-3
14-01-2024,15:00,2.10840,P,ugm-3,18.66384,P,ugm-3,21.89668,P,ugm-3
14-01-2024,16:00,1.85394,P,ugm-3,16.99249,P,ugm-3,19.83516,P,ugm-3
14-01-2024,17:00,1.41772,P,ugm-3,11.42108,P,ugm-3,13.59489,P,ugm-3
14-01-2024,18:00,0.83609,P,ugm-3,9.86136,P,ugm-3,11.14335,P,ugm-3
14-01-2024,19:00,0.65433,P,ugm-3,15.09885,P,ugm-3,16.10214,P,ugm-3
14-01-2024,20:00,1.09055,P,ugm-3,24.12470,P,ugm-3,25.79686,P,ugm-3
14-01-2024,21:00,0.69068,P,ugm-3,12.53585,P,ugm-3,13.59489,P,ugm-3
14-01-2024,22:00,0.43622,P,ugm-3,11.08737,P,ugm-3,11.75624,P,ugm-3
14-01-2024,23:00,0.43622,P,ugm-3,8.19010,P,ugm-3,8.85896,P,ugm-3
14-01-2024,24:00,0.32717,P,ugm-3,5.73863,P,ugm-3,6.24028,P,ugm-3
15-01-2024,01:00,0.19334,P,ugm-3,7.26382,P,ugm-3,7.56026,P,ugm-3
15-01-2024,02:00,0.14500,P,ugm-3,4.59548,P,ugm-3,4.81781,P,ugm-3
15-01-2024,03:00,0.10875,P,ugm-3,6.11494,P,ugm-3,6.28169,P,ugm-3
15-01-2024,04:00,0.10875,P,ugm-3,1.77891,P,ugm-3,1.94566,P,ugm-3
15-01-2024,05:00,0.03625,P,ugm-3,1.27858,P,ugm-3,1.33416,P,ugm-3
15-01-2024,06:00,0.18125,P,ugm-3,8.83887,P,ugm-3,9.11679,P,ugm-3
15-01-2024,07:00,0.43501,P,ugm-3,9.06128,P,ugm-3,9.72828,P,ugm-3
15-01-2024,08:00,1.70378,P,ugm-3,15.23202,P,ugm-3,17.84444,P,ugm-3
15-01-2024,09:00,2.53754,P,ugm-3,18.95671,P,ugm-3,22.84756,P,ugm-3
15-01-2024,10:00,2.86380,P,ugm-3,23.68194,P,ugm-3,28.07303,P,ugm-3
15-01-2024,11:00,3.37131,P,ugm-3,21.29165,P,ugm-3,26.46092,P,ugm-3
15-01-2024,12:00,3.98757,P,ugm-3,18.34548,P,ugm-3,24.45967,P,ugm-3
15-01-2024,13:00,3.37131,P,ugm-3,14.84319,P,ugm-3,20.01246,P,ugm-3
15-01-2024,14:00,3.37131,P,ugm-3,19.56836,P,ugm-3,24.73762,P,ugm-3
15-01-2024,15:00,5.18384,P,ugm-3,27.01777,P,ugm-3,34.96621,P,ugm-3
15-01-2024,16:00,4.27757,P,ugm-3,22.12567,P,ugm-3,28.68452,P,ugm-3
15-01-2024,17:00,3.19006,P,ugm-3,23.90436,P,ugm-3,28.79570,P,ugm-3
15-01-2024,18:00,3.80632,P,ugm-3,28.90758,P,ugm-3,34.74385,P,ugm-3
15-01-2024,19:00,13.12272,P,ugm-3,67.76681,P,ugm-3,87.88804,P,ugm-3
15-01-2024,20:00,19.35783,P,ugm-3,75.10586,P,ugm-3,104.78745,P,ugm-3